sat.trackr.live / text

‹ back to catalog

STARLINK-36449

NORAD 67308 · 2026-002D

PAYLOAD ACTIVE UNKNOWN

§ Identity

Operator
Country
US
Launch date
2026-01-04
Launch site
AFETR
Launch vehicle
Mass (kg)
RCS (m²)

Purposes: comms

External: N2YO · Heavens-Above · Gunter

§ Orbital elements

Epoch: 2026-09-19T11:02:55.892832Z

Period
94.27 min
Inclination
43.0028°
Eccentricity
0.0002175
Mean motion
15.27581597 rev/d
Perigee alt
481.6 km
Apogee alt
484.5 km
Semi-major
6,861.2 km
B*
3.4051e-4
RAAN
310.9535°
Arg perigee
292.4820°
Mean anomaly
67.5801°
Rev number
4,077

§ Raw data

STARLINK-364491 67308U 26002D   26262.46036913  .00009120  00000+0  34051-3 0  99912 67308  43.0028 310.9535 0002175 292.4820  67.5801 15.27581597 40776

JSON: /api/v1/satellites/67308 · /tle

For live sub-satellite position, see the globe view (requires WebGL).

§ Visibility from observer

Set your observer location to see the next 7 days of passes ≥ 10°. The values pass through the URL so the page stays shareable.

No JS? Fill the form by hand. The geolocation button needs JavaScript.